World > North America > United States > North Carolina > Asheville   City of Asheville, NC

Asheville, NC Hourly Weather Updates

Feedback E-mail the Weather

Quick Clicks

Asheville, NC Weather Maps

°F °C°F °C
Asheville Weather Map
UTC Time: 4/13/2024, 07:15
Your Time:

Asheville, NC Regional Weather

Expires:202404130800;;656730
ASUS42 KRAH 130710
RWRRAH
NORTH CAROLINA WEATHER ROUNDUP
NATIONAL WEATHER SERVICE RALEIGH NC
300 AM EDT SAT APR 13 2024

NOTE: "FAIR" INDICATES FEW OR NO CLOUDS BELOW 12,000 FEET WITH NO
SIGNIFICANT WEATHER AND/OR OBSTRUCTIONS TO VISIBILITY.


NCZ001-053-055-056-065-067-130800-
WESTERN NORTH CAROLINA
  
CITY           SKY/WX    TMP DP  RH WIND       PRES   REMARKS
ASHEVILLE      CLEAR     52  30  43 NW14G31   30.07F                  
JEFFERSON      PTCLDY    40  35  80 W29G39    29.99S WCI  29          
MORGANTON      CLEAR     52  38  57 CALM      30.04S                  
HICKORY        CLEAR     50  37  61 W6        30.02F                  
WILKESBORO     CLEAR     48  36  61 W5        30.03F                  
RUTHERFORDTON  CLEAR     52  34  50 NW10G16   30.06F                  
MOUNT AIRY     CLEAR     49  37  63 W5G17     30.00S                  
BOONE          LGT RAIN  39  38  94 NW14G29   29.85S WCI  31          
$$
 

SKY/WX - Weather  TMP - Temperature  DP - Dew Point  RH - Humidity
WIND - Wind Direction/Speed PRES - Barometric Pressure VSB - Visibility
WCI - Wind Chill Index E13G22 Wind - East Wind 13 mph/Gusts of 22 mph

Trending Headlines

Trending Entertainment Headlines

Asheville Radar Loop

Use the map search tool if you want to place a location marker on the radar map...

Asheville Quick Facts

National Two Day Weather Forecast


E-mail the Asheville Weather Forecast

Voice your opinion or tell us about page issues...